Time,TemperatureF,DewpointF,PressureIn,WindDirection,WindDirectionDegrees,WindSpeedMPH,WindSpeedGustMPH,Humidity,HourlyPrecipIn,Conditions,Clouds,dailyrainin,SoftwareType,DateUTC
2013-09-17 00:02:00,53.0,45.3,30.24,ESE,108,5.0,5.0,75,0.00,,,0.00,VWS V14.01,2013-09-17 05:02:00,
2013-09-17 00:07:00,53.0,45.3,30.24,ESE,110,0.0,6.0,75,0.00,,,0.00,VWS V14.01,2013-09-17 05:07:00,
2013-09-17 00:12:00,53.1,45.4,30.24,ESE,121,6.0,9.0,75,0.00,,,0.00,VWS V14.01,2013-09-17 05:12:00,
2013-09-17 00:17:00,53.1,45.4,30.24,SE,139,0.0,10.0,75,0.00,,,0.00,VWS V14.01,2013-09-17 05:17:00,
2013-09-17 00:22:00,53.1,45.4,30.24,SE,144,4.0,10.0,75,0.00,,,0.00,VWS V14.01,2013-09-17 05:22:00,
2013-09-17 00:27:00,53.1,45.4,30.24,SE,127,0.0,10.0,75,0.00,,,0.00,VWS V14.01,2013-09-17 05:27:00,
2013-09-17 00:33:00,53.1,45.4,30.24,ESE,119,3.0,5.0,75,0.00,,,0.00,VWS V14.01,2013-09-17 05:33:00,
2013-09-17 00:38:00,52.9,45.2,30.24,ESE,119,3.0,10.0,75,0.00,,,0.00,VWS V14.01,2013-09-17 05:38:00,
2013-09-17 00:43:00,52.8,45.1,30.24,SE,127,9.0,11.0,75,0.00,,,0.00,VWS V14.01,2013-09-17 05:43:00,
2013-09-17 00:48:00,52.7,45.0,30.24,East,93,5.0,11.0,75,0.00,,,0.00,VWS V14.01,2013-09-17 05:48:00,
2013-09-17 00:53:00,52.6,45.3,30.24,ESE,119,6.0,11.0,76,0.00,,,0.00,VWS V14.01,2013-09-17 05:53:00,
2013-09-17 00:58:00,52.6,45.3,30.24,ESE,115,3.0,12.0,76,0.00,,,0.00,VWS V14.01,2013-09-17 05:58:00,
2013-09-17 01:03:00,52.6,45.3,30.24,ESE,118,8.0,12.0,76,0.00,,,0.00,VWS V14.01,2013-09-17 06:03:00,
2013-09-17 01:08:00,52.7,45.4,30.24,SE,132,9.0,13.0,76,0.00,,,0.00,VWS V14.01,2013-09-17 06:08:00,
2013-09-17 01:13:00,52.9,45.5,30.24,ESE,113,13.0,15.0,76,0.00,,,0.00,VWS V14.01,2013-09-17 06:13:00,
2013-09-17 01:18:00,53.0,45.7,30.24,SE,135,7.0,15.0,76,0.00,,,0.00,VWS V14.01,2013-09-17 06:18:00,
2013-09-17 01:23:00,53.0,45.7,30.24,ESE,113,4.0,15.0,76,0.00,,,0.00,VWS V14.01,2013-09-17 06:23:00,
2013-09-17 01:28:00,52.9,45.9,30.24,ESE,104,7.0,15.0,77,0.00,,,0.00,VWS V14.01,2013-09-17 06:28:00,
2013-09-17 01:30:00,52.9,45.9,30.24,ESE,108,7.0,15.0,77,0.00,,,0.00,VWS V15.00,2013-09-17 06:30:00,
2013-09-17 01:33:00,52.8,45.8,30.24,SSE,158,10.0,15.0,77,0.00,,,0.00,VWS V14.01,2013-09-17 06:33:00,
2013-09-17 01:38:00,52.7,45.7,30.23,SE,130,2.0,15.0,77,0.00,,,0.00,VWS V14.01,2013-09-17 06:38:00,
2013-09-17 01:43:00,52.5,45.5,30.24,ESE,107,6.0,15.0,77,0.00,,,0.00,VWS V14.01,2013-09-17 06:43:00,
2013-09-17 01:48:00,52.4,45.4,30.24,ESE,115,3.0,15.0,77,0.00,,,0.00,VWS V14.01,2013-09-17 06:48:00,
2013-09-17 01:53:00,52.3,45.3,30.24,ESE,114,6.0,15.0,77,0.00,,,0.00,VWS V14.01,2013-09-17 06:53:00,
2013-09-17 01:58:00,52.1,45.5,30.24,SE,146,2.0,15.0,78,0.00,,,0.00,VWS V14.01,2013-09-17 06:58:00,
2013-09-17 02:00:00,52.1,45.5,30.24,ESE,119,6.0,15.0,78,0.00,,,0.00,VWS V15.00,2013-09-17 07:00:00,
2013-09-17 02:03:00,52.0,45.4,30.24,SE,144,9.0,13.0,78,0.00,,,0.00,VWS V14.01,2013-09-17 07:03:00,
2013-09-17 02:08:00,51.9,45.3,30.23,SE,131,7.0,13.0,78,0.00,,,0.00,VWS V14.01,2013-09-17 07:08:00,
2013-09-17 02:13:00,51.8,45.2,30.23,SSE,160,7.0,13.0,78,0.00,,,0.00,VWS V14.01,2013-09-17 07:13:00,
2013-09-17 02:18:00,51.8,45.2,30.23,ESE,118,5.0,13.0,78,0.00,,,0.00,VWS V14.01,2013-09-17 07:18:00,
2013-09-17 02:23:00,51.7,45.1,30.23,ESE,118,0.0,13.0,78,0.00,,,0.00,VWS V14.01,2013-09-17 07:23:00,
2013-09-17 02:28:00,51.7,45.1,30.23,ESE,113,5.0,13.0,78,0.00,,,0.00,VWS V14.01,2013-09-17 07:28:00,
2013-09-17 02:33:00,51.6,45.3,30.23,SE,130,6.0,9.0,79,0.00,,,0.00,VWS V14.01,2013-09-17 07:33:00,
2013-09-17 02:38:00,51.5,45.2,30.23,ENE,78,12.0,13.0,79,0.00,,,0.00,VWS V14.01,2013-09-17 07:38:00,
2013-09-17 02:43:00,51.5,45.2,30.22,ESE,111,7.0,13.0,79,0.00,,,0.00,VWS V14.01,2013-09-17 07:43:00,
2013-09-17 02:49:00,51.5,45.5,30.22,SE,126,5.0,13.0,80,0.00,,,0.00,VWS V14.01,2013-09-17 07:49:00,
2013-09-17 02:54:00,51.5,45.5,30.22,SE,139,10.0,13.0,80,0.00,,,0.00,VWS V14.01,2013-09-17 07:54:00,
2013-09-17 02:59:00,51.5,45.5,30.23,SE,126,6.0,13.0,80,0.00,,,0.00,VWS V14.01,2013-09-17 07:59:00,
2013-09-17 03:04:00,51.5,45.5,30.22,SE,124,7.0,10.0,80,0.00,,,0.00,VWS V14.01,2013-09-17 08:04:00,
2013-09-17 03:09:00,51.4,45.5,30.22,ESE,113,1.0,10.0,80,0.00,,,0.00,VWS V14.01,2013-09-17 08:09:00,
2013-09-17 03:14:00,51.4,45.5,30.22,ESE,112,0.0,14.0,80,0.00,,,0.00,VWS V14.01,2013-09-17 08:14:00,
2013-09-17 03:19:00,51.4,45.5,30.22,ESE,123,1.0,14.0,80,0.00,,,0.00,VWS V14.01,2013-09-17 08:19:00,
2013-09-17 03:24:00,51.4,45.5,30.22,South,184,0.0,14.0,80,0.00,,,0.00,VWS V14.01,2013-09-17 08:24:00,
2013-09-17 03:29:00,51.4,45.1,30.22,SE,137,5.0,14.0,79,0.00,,,0.00,VWS V14.01,2013-09-17 08:29:00,
2013-09-17 03:34:00,51.4,45.1,30.22,ESE,121,10.0,12.0,79,0.00,,,0.00,VWS V14.01,2013-09-17 08:34:00,
2013-09-17 03:39:00,51.3,45.0,30.22,SE,131,3.0,12.0,79,0.00,,,0.00,VWS V14.01,2013-09-17 08:39:00,
2013-09-17 03:44:00,51.3,45.0,30.22,SE,146,10.0,12.0,79,0.00,,,0.00,VWS V14.01,2013-09-17 08:44:00,
2013-09-17 03:49:00,51.3,44.7,30.22,SE,132,3.0,12.0,78,0.00,,,0.00,VWS V14.01,2013-09-17 08:49:00,
2013-09-17 03:54:00,51.3,45.0,30.22,ESE,123,0.0,12.0,79,0.00,,,0.00,VWS V14.01,2013-09-17 08:54:00,
2013-09-17 03:59:00,51.3,45.0,30.22,ESE,112,0.0,12.0,79,0.00,,,0.00,VWS V14.01,2013-09-17 08:59:00,
2013-09-17 04:00:00,51.3,45.0,30.22,ESE,117,5.0,12.0,79,0.00,,,0.00,VWS V15.00,2013-09-17 09:00:00,
2013-09-17 04:04:00,51.2,44.9,30.22,SE,131,2.0,7.0,79,0.00,,,0.00,VWS V14.01,2013-09-17 09:04:00,
2013-09-17 04:09:00,51.2,44.9,30.21,SE,127,1.0,10.0,79,0.00,,,0.00,VWS V14.01,2013-09-17 09:09:00,
2013-09-17 04:14:00,51.2,44.9,30.21,ESE,104,6.0,10.0,79,0.00,,,0.00,VWS V14.01,2013-09-17 09:14:00,
2013-09-17 04:19:00,51.2,44.9,30.21,ESE,114,5.0,10.0,79,0.00,,,0.00,VWS V14.01,2013-09-17 09:19:00,
2013-09-17 04:24:00,51.3,45.0,30.21,ESE,104,3.0,10.0,79,0.00,,,0.00,VWS V14.01,2013-09-17 09:24:00,
2013-09-17 04:29:00,51.4,45.1,30.21,ESE,119,1.0,10.0,79,0.00,,,0.00,VWS V14.01,2013-09-17 09:29:00,
2013-09-17 04:30:00,51.5,45.2,30.21,ESE,121,4.0,10.0,79,0.00,,,0.00,VWS V15.00,2013-09-17 09:30:00,
2013-09-17 04:34:00,51.5,45.5,30.21,ESE,113,4.0,9.0,80,0.00,,,0.00,VWS V14.01,2013-09-17 09:34:00,
2013-09-17 04:39:00,51.7,45.7,30.21,East,91,0.0,9.0,80,0.00,,,0.00,VWS V14.01,2013-09-17 09:39:00,
2013-09-17 04:44:00,51.8,45.8,30.21,ESE,111,1.0,9.0,80,0.00,,,0.00,VWS V14.01,2013-09-17 09:44:00,
2013-09-17 04:49:00,51.9,45.9,30.21,ESE,120,5.0,9.0,80,0.00,,,0.00,VWS V14.01,2013-09-17 09:49:00,
2013-09-17 04:55:00,52.0,46.0,30.21,ESE,118,0.0,9.0,80,0.00,,,0.00,VWS V14.01,2013-09-17 09:55:00,
2013-09-17 05:00:00,52.0,46.0,30.21,East,88,1.0,9.0,80,0.00,,,0.00,VWS V14.01,2013-09-17 10:00:00,
2013-09-17 05:05:00,52.1,45.8,30.20,East,92,3.0,7.0,79,0.00,,,0.00,VWS V14.01,2013-09-17 10:05:00,
2013-09-17 05:10:00,52.2,45.9,30.20,SE,132,5.0,7.0,79,0.00,,,0.00,VWS V14.01,2013-09-17 10:10:00,
2013-09-17 05:15:00,52.2,45.9,30.20,ESE,118,5.0,9.0,79,0.00,,,0.00,VWS V14.01,2013-09-17 10:15:00,
2013-09-17 05:20:00,52.3,46.0,30.20,ESE,106,4.0,10.0,79,0.00,,,0.00,VWS V14.01,2013-09-17 10:20:00,
2013-09-17 05:25:00,52.2,45.6,30.19,East,82,0.0,11.0,78,0.00,,,0.00,VWS V14.01,2013-09-17 10:25:00,
2013-09-17 05:30:00,52.1,45.5,30.19,East,101,4.0,11.0,78,0.00,,,0.00,VWS V14.01,2013-09-17 10:30:00,
2013-09-17 05:35:00,51.9,45.3,30.19,East,90,5.0,10.0,78,0.00,,,0.00,VWS V14.01,2013-09-17 10:35:00,
2013-09-17 05:40:00,51.9,45.6,30.19,East,100,3.0,10.0,79,0.00,,,0.00,VWS V14.01,2013-09-17 10:40:00,
2013-09-17 05:45:00,51.9,45.6,30.19,East,98,4.0,13.0,79,0.00,,,0.00,VWS V14.01,2013-09-17 10:45:00,
2013-09-17 05:50:00,51.9,45.6,30.19,ESE,108,5.0,13.0,79,0.00,,,0.00,VWS V14.01,2013-09-17 10:50:00,
2013-09-17 05:55:00,52.0,45.7,30.19,ESE,123,7.0,13.0,79,0.00,,,0.00,VWS V14.01,2013-09-17 10:55:00,
2013-09-17 06:00:00,52.1,45.8,30.18,ESE,104,5.0,13.0,79,0.00,,,0.00,VWS V14.01,2013-09-17 11:00:00,
2013-09-17 06:05:00,52.2,45.6,30.18,ESE,107,9.0,11.0,78,0.00,,,0.00,VWS V14.01,2013-09-17 11:05:00,
2013-09-17 06:10:00,52.2,45.6,30.18,ESE,121,6.0,12.0,78,0.00,,,0.00,VWS V14.01,2013-09-17 11:10:00,
2013-09-17 06:15:00,52.2,45.6,30.18,East,91,5.0,12.0,78,0.00,,,0.00,VWS V14.01,2013-09-17 11:15:00,
2013-09-17 06:20:00,52.2,45.6,30.18,ESE,110,4.0,13.0,78,0.00,,,0.00,VWS V14.01,2013-09-17 11:20:00,
2013-09-17 06:25:00,52.2,45.6,30.18,ESE,110,7.0,13.0,78,0.00,,,0.00,VWS V14.01,2013-09-17 11:25:00,
2013-09-17 06:30:00,52.1,45.5,30.18,East,86,3.0,13.0,78,0.00,,,0.00,VWS V14.01,2013-09-17 11:30:00,
2013-09-17 06:35:00,52.1,45.5,30.18,East,92,4.0,12.0,78,0.00,,,0.00,VWS V14.01,2013-09-17 11:35:00,
2013-09-17 06:40:00,52.1,45.5,30.18,ESE,116,7.0,16.0,78,0.00,,,0.00,VWS V14.01,2013-09-17 11:40:00,
2013-09-17 06:45:00,52.2,45.6,30.18,SE,131,7.0,16.0,78,0.00,,,0.00,VWS V14.01,2013-09-17 11:45:00,
2013-09-17 06:51:00,52.2,45.6,30.18,SE,144,5.0,16.0,78,0.00,,,0.00,VWS V14.01,2013-09-17 11:51:00,
2013-09-17 06:56:00,52.2,45.6,30.18,ESE,109,11.0,17.0,78,0.00,,,0.00,VWS V14.01,2013-09-17 11:56:00,
2013-09-17 07:01:00,52.3,45.7,30.18,East,80,9.0,17.0,78,0.00,,,0.00,VWS V14.01,2013-09-17 12:01:00,
2013-09-17 07:06:00,52.3,45.7,30.18,East,88,9.0,16.0,78,0.00,,,0.00,VWS V14.01,2013-09-17 12:06:00,
2013-09-17 07:11:00,52.2,45.6,30.18,East,92,12.0,18.0,78,0.00,,,0.00,VWS V14.01,2013-09-17 12:11:00,
2013-09-17 07:16:00,52.2,45.6,30.18,East,98,6.0,18.0,78,0.00,,,0.00,VWS V14.01,2013-09-17 12:16:00,
2013-09-17 07:21:00,52.2,45.6,30.18,ESE,120,10.0,18.0,78,0.00,,,0.00,VWS V14.01,2013-09-17 12:21:00,
2013-09-17 07:26:00,52.2,45.6,30.18,ESE,102,9.0,18.0,78,0.00,,,0.00,VWS V14.01,2013-09-17 12:26:00,
2013-09-17 07:31:00,52.1,45.5,30.18,SE,137,14.0,18.0,78,0.00,,,0.00,VWS V14.01,2013-09-17 12:31:00,
2013-09-17 07:36:00,52.1,45.5,30.18,SE,126,8.0,14.0,78,0.00,,,0.00,VWS V14.01,2013-09-17 12:36:00,
2013-09-17 07:41:00,52.1,45.8,30.17,SSE,167,6.0,15.0,79,0.00,,,0.00,VWS V14.01,2013-09-17 12:41:00,
2013-09-17 07:46:00,52.1,45.8,30.17,ESE,110,5.0,16.0,79,0.00,,,0.00,VWS V14.01,2013-09-17 12:46:00,
2013-09-17 07:51:00,52.1,45.8,30.17,East,98,6.0,16.0,79,0.00,,,0.00,VWS V14.01,2013-09-17 12:51:00,
2013-09-17 07:56:00,52.1,45.8,30.17,East,84,9.0,16.0,79,0.00,,,0.00,VWS V14.01,2013-09-17 12:56:00,
2013-09-17 08:01:00,52.2,45.9,30.17,East,97,10.0,10.0,79,0.00,,,0.00,VWS V14.01,2013-09-17 13:01:00,
2013-09-17 08:06:00,52.4,46.4,30.17,East,101,9.0,13.0,80,0.00,,,0.00,VWS V14.01,2013-09-17 13:06:00,
2013-09-17 08:11:00,52.6,46.6,30.17,ESE,114,10.0,16.0,80,0.00,,,0.00,VWS V14.01,2013-09-17 13:11:00,
2013-09-17 08:16:00,52.8,46.8,30.17,ESE,104,11.0,16.0,80,0.00,,,0.00,VWS V14.01,2013-09-17 13:16:00,
2013-09-17 08:22:00,53.0,46.7,30.16,East,98,5.0,16.0,79,0.00,,,0.00,VWS V14.01,2013-09-17 13:22:00,
2013-09-17 08:27:00,53.2,46.9,30.16,SSE,156,1.0,17.0,79,0.00,,,0.00,VWS V14.01,2013-09-17 13:27:00,
2013-09-17 08:32:00,53.4,47.1,30.16,East,84,3.0,11.0,79,0.00,,,0.00,VWS V14.01,2013-09-17 13:32:00,
2013-09-17 08:37:00,53.6,47.3,30.16,ESE,111,10.0,14.0,79,0.00,,,0.00,VWS V14.01,2013-09-17 13:37:00,
2013-09-17 08:42:00,53.8,47.5,30.16,ESE,109,5.0,14.0,79,0.00,,,0.00,VWS V14.01,2013-09-17 13:42:00,
2013-09-17 08:47:00,54.1,47.7,30.16,SE,132,7.0,14.0,79,0.00,,,0.00,VWS V14.01,2013-09-17 13:47:00,
2013-09-17 08:52:00,54.3,47.9,30.16,ESE,113,9.0,14.0,79,0.00,,,0.00,VWS V14.01,2013-09-17 13:52:00,
2013-09-17 08:57:00,54.6,48.2,30.16,ESE,118,5.0,14.0,79,0.00,,,0.00,VWS V14.01,2013-09-17 13:57:00,
2013-09-17 09:00:00,54.8,48.1,30.16,East,81,8.0,14.0,78,0.00,,,0.00,VWS V15.00,2013-09-17 14:00:00,
2013-09-17 09:02:00,54.9,48.2,30.16,ESE,122,5.0,9.0,78,0.00,,,0.00,VWS V14.01,2013-09-17 14:02:00,
2013-09-17 09:07:00,55.1,48.4,30.16,ESE,110,9.0,12.0,78,0.00,,,0.00,VWS V14.01,2013-09-17 14:07:00,
2013-09-17 09:12:00,55.4,48.3,30.16,SE,142,9.0,13.0,77,0.00,,,0.00,VWS V14.01,2013-09-17 14:12:00,
2013-09-17 09:17:00,55.6,48.5,30.15,SSE,163,3.0,16.0,77,0.00,,,0.00,VWS V14.01,2013-09-17 14:17:00,
2013-09-17 09:22:00,55.8,48.7,30.16,SE,137,4.0,16.0,77,0.00,,,0.00,VWS V14.01,2013-09-17 14:22:00,
2013-09-17 09:27:00,56.1,49.0,30.16,SE,125,1.0,16.0,77,0.00,,,0.00,VWS V14.01,2013-09-17 14:27:00,
2013-09-17 09:32:00,56.4,49.3,30.16,SE,128,12.0,12.0,77,0.00,,,0.00,VWS V14.01,2013-09-17 14:32:00,
2013-09-17 09:37:00,56.6,49.1,30.15,ESE,120,4.0,13.0,76,0.00,,,0.00,VWS V14.01,2013-09-17 14:37:00,
2013-09-17 09:42:00,56.8,49.3,30.16,SSE,154,6.0,14.0,76,0.00,,,0.00,VWS V14.01,2013-09-17 14:42:00,
2013-09-17 09:47:00,57.0,49.2,30.15,ENE,71,6.0,17.0,75,0.00,,,0.00,VWS V14.01,2013-09-17 14:47:00,
2013-09-17 09:52:00,57.2,49.7,30.15,SE,124,5.0,17.0,76,0.00,,,0.00,VWS V14.01,2013-09-17 14:52:00,
2013-09-17 09:57:00,57.5,50.0,30.15,SE,144,10.0,17.0,76,0.00,,,0.00,VWS V14.01,2013-09-17 14:57:00,
2013-09-17 10:02:00,57.8,50.3,30.15,ESE,111,4.0,9.0,76,0.00,,,0.00,VWS V14.01,2013-09-17 15:02:00,
2013-09-17 10:07:00,58.3,50.4,30.15,SE,125,4.0,15.0,75,0.00,,,0.00,VWS V14.01,2013-09-17 15:07:00,
2013-09-17 10:12:00,58.9,50.6,30.14,SE,140,11.0,16.0,74,0.00,,,0.00,VWS V14.01,2013-09-17 15:12:00,
2013-09-17 10:17:00,59.8,51.1,30.14,SE,139,9.0,16.0,73,0.00,,,0.00,VWS V14.01,2013-09-17 15:17:00,
2013-09-17 10:22:00,60.7,51.6,30.14,ENE,63,11.0,18.0,72,0.00,,,0.00,VWS V14.01,2013-09-17 15:22:00,
2013-09-17 10:28:00,61.1,51.6,30.13,ESE,106,5.0,18.0,71,0.00,,,0.00,VWS V14.01,2013-09-17 15:28:00,
2013-09-17 10:33:00,61.2,51.3,30.13,SSE,156,10.0,12.0,70,0.00,,,0.00,VWS V14.01,2013-09-17 15:33:00,
2013-09-17 10:38:00,61.7,52.2,30.13,SSE,156,5.0,15.0,71,0.00,,,0.00,VWS V14.01,2013-09-17 15:38:00,
2013-09-17 10:43:00,62.3,52.4,30.13,SE,129,5.0,21.0,70,0.00,,,0.00,VWS V14.01,2013-09-17 15:43:00,
2013-09-17 10:48:00,62.7,52.8,30.13,ESE,105,14.0,21.0,70,0.00,,,0.00,VWS V14.01,2013-09-17 15:48:00,
2013-09-17 10:53:00,63.2,52.9,30.12,ENE,69,2.0,21.0,69,0.00,,,0.00,VWS V14.01,2013-09-17 15:53:00,
2013-09-17 10:58:00,63.4,53.1,30.12,East,96,4.0,21.0,69,0.00,,,0.00,VWS V14.01,2013-09-17 15:58:00,
2013-09-17 11:00:00,63.6,53.3,30.12,East,87,2.0,21.0,69,0.00,,,0.00,VWS V15.00,2013-09-17 16:00:00,
2013-09-17 11:03:00,63.8,53.5,30.12,SE,131,10.0,11.0,69,0.00,,,0.00,VWS V14.01,2013-09-17 16:03:00,
2013-09-17 11:08:00,64.3,53.5,30.12,South,171,11.0,16.0,68,0.00,,,0.00,VWS V14.01,2013-09-17 16:08:00,
2013-09-17 11:13:00,64.5,53.7,30.12,SSE,156,10.0,16.0,68,0.00,,,0.00,VWS V14.01,2013-09-17 16:13:00,
2013-09-17 11:18:00,64.8,53.6,30.12,SE,133,10.0,16.0,67,0.00,,,0.00,VWS V14.01,2013-09-17 16:18:00,
2013-09-17 11:23:00,65.1,53.9,30.11,ESE,102,4.0,18.0,67,0.00,,,0.00,VWS V14.01,2013-09-17 16:23:00,
2013-09-17 11:28:00,65.5,54.7,30.11,ESE,111,9.0,18.0,68,0.00,,,0.00,VWS V14.01,2013-09-17 16:28:00,
2013-09-17 11:30:00,65.6,54.4,30.11,East,95,11.0,18.0,67,0.00,,,0.00,VWS V15.00,2013-09-17 16:30:00,
2013-09-17 11:33:00,65.6,54.0,30.11,East,99,6.0,16.0,66,0.00,,,0.00,VWS V14.01,2013-09-17 16:33:00,
2013-09-17 11:38:00,65.7,54.5,30.11,ESE,108,14.0,19.0,67,0.00,,,0.00,VWS V14.01,2013-09-17 16:38:00,
2013-09-17 11:43:00,65.8,54.5,30.11,ESE,120,11.0,19.0,67,0.00,,,0.00,VWS V14.01,2013-09-17 16:43:00,
2013-09-17 11:48:00,65.9,54.7,30.11,ESE,104,11.0,19.0,67,0.00,,,0.00,VWS V14.01,2013-09-17 16:48:00,
2013-09-17 11:53:00,65.9,54.2,30.11,SE,137,10.0,19.0,66,0.00,,,0.00,VWS V14.01,2013-09-17 16:53:00,
2013-09-17 11:58:00,66.1,55.2,30.10,SE,135,10.0,19.0,68,0.00,,,0.00,VWS V14.01,2013-09-17 16:58:00,
2013-09-17 12:03:00,66.3,54.6,30.10,SE,138,6.0,17.0,66,0.00,,,0.00,VWS V14.01,2013-09-17 17:03:00,
2013-09-17 12:08:00,66.4,54.7,30.10,ESE,102,5.0,21.0,66,0.00,,,0.00,VWS V14.01,2013-09-17 17:08:00,
2013-09-17 12:13:00,66.3,55.0,30.09,ESE,114,11.0,22.0,67,0.00,,,0.00,VWS V14.01,2013-09-17 17:13:00,
2013-09-17 12:18:00,66.2,54.9,30.09,SE,135,14.0,22.0,67,0.00,,,0.00,VWS V14.01,2013-09-17 17:18:00,
2013-09-17 12:23:00,66.1,55.2,30.09,South,181,1.0,22.0,68,0.00,,,0.00,VWS V14.01,2013-09-17 17:23:00,
2013-09-17 12:28:00,66.1,55.2,30.09,SSE,156,5.0,22.0,68,0.00,,,0.00,VWS V14.01,2013-09-17 17:28:00,
2013-09-17 12:33:00,66.2,55.3,30.09,SSE,149,10.0,17.0,68,0.00,,,0.00,VWS V14.01,2013-09-17 17:33:00,
2013-09-17 12:39:00,66.1,55.7,30.09,SE,135,11.0,17.0,69,0.00,,,0.00,VWS V14.01,2013-09-17 17:39:00,
2013-09-17 12:44:00,66.3,55.4,30.09,ESE,112,14.0,17.0,68,0.00,,,0.00,VWS V14.01,2013-09-17 17:44:00,
2013-09-17 12:49:00,66.3,55.8,30.08,SSE,165,12.0,20.0,69,0.00,,,0.00,VWS V14.01,2013-09-17 17:49:00,
2013-09-17 12:54:00,66.3,55.4,30.09,SSE,162,12.0,20.0,68,0.00,,,0.00,VWS V14.01,2013-09-17 17:54:00,
2013-09-17 12:59:00,66.3,55.4,30.08,ESE,110,10.0,20.0,68,0.00,,,0.00,VWS V14.01,2013-09-17 17:59:00,
2013-09-17 13:04:00,66.2,54.9,30.08,SE,135,7.0,21.0,67,0.00,,,0.00,VWS V14.01,2013-09-17 18:04:00,
2013-09-17 13:09:00,65.9,55.0,30.08,SSE,153,8.0,21.0,68,0.00,,,0.00,VWS V14.01,2013-09-17 18:09:00,
2013-09-17 13:14:00,65.9,55.5,30.07,ESE,104,7.0,21.0,69,0.00,,,0.00,VWS V14.01,2013-09-17 18:14:00,
2013-09-17 13:19:00,66.0,55.5,30.07,ESE,117,8.0,21.0,69,0.00,,,0.00,VWS V14.01,2013-09-17 18:19:00,
2013-09-17 13:24:00,65.8,55.4,30.07,South,174,0.0,21.0,69,0.00,,,0.00,VWS V14.01,2013-09-17 18:24:00,
2013-09-17 13:29:00,65.8,55.4,30.06,SE,136,11.0,21.0,69,0.00,,,0.00,VWS V14.01,2013-09-17 18:29:00,
2013-09-17 13:34:00,65.8,55.8,30.06,SE,142,6.0,17.0,70,0.00,,,0.00,VWS V14.01,2013-09-17 18:34:00,
2013-09-17 13:39:00,65.7,55.3,30.06,South,185,10.0,18.0,69,0.00,,,0.00,VWS V14.01,2013-09-17 18:39:00,
2013-09-17 13:44:00,65.6,55.2,30.06,South,178,11.0,19.0,69,0.00,,,0.00,VWS V14.01,2013-09-17 18:44:00,
2013-09-17 13:49:00,65.4,55.4,30.06,ESE,112,13.0,21.0,70,0.00,,,0.00,VWS V14.01,2013-09-17 18:49:00,
2013-09-17 13:54:00,65.4,55.4,30.06,SE,127,12.0,21.0,70,0.00,,,0.00,VWS V14.01,2013-09-17 18:54:00,
2013-09-17 13:59:00,65.3,55.3,30.06,SE,146,18.0,21.0,70,0.00,,,0.00,VWS V14.01,2013-09-17 18:59:00,
2013-09-17 14:04:00,65.1,55.1,30.05,South,173,6.0,15.0,70,0.00,,,0.00,VWS V14.01,2013-09-17 19:04:00,
2013-09-17 14:09:00,65.0,55.0,30.05,SE,125,6.0,15.0,70,0.00,,,0.00,VWS V14.01,2013-09-17 19:09:00,
2013-09-17 14:14:00,65.0,55.4,30.05,ESE,112,0.0,15.0,71,0.00,,,0.00,VWS V14.01,2013-09-17 19:14:00,
2013-09-17 14:19:00,65.0,55.4,30.05,ESE,108,7.0,15.0,71,0.00,,,0.00,VWS V14.01,2013-09-17 19:19:00,
2013-09-17 14:24:00,64.9,55.3,30.05,SSE,151,6.0,15.0,71,0.00,,,0.00,VWS V14.01,2013-09-17 19:24:00,
2013-09-17 14:29:00,64.8,54.8,30.04,SE,129,6.0,17.0,70,0.00,,,0.00,VWS V14.01,2013-09-17 19:29:00,
2013-09-17 14:34:00,64.7,54.7,30.04,SE,142,11.0,19.0,70,0.00,,,0.00,VWS V14.01,2013-09-17 19:34:00,
2013-09-17 14:39:00,64.6,54.6,30.04,South,171,7.0,19.0,70,0.00,,,0.00,VWS V14.01,2013-09-17 19:39:00,
2013-09-17 14:44:00,64.5,54.5,30.04,ESE,112,10.0,20.0,70,0.00,,,0.00,VWS V14.01,2013-09-17 19:44:00,
2013-09-17 14:50:00,64.3,54.3,30.04,SSE,151,6.0,23.0,70,0.00,,,0.00,VWS V14.01,2013-09-17 19:50:00,
2013-09-17 14:55:00,64.1,54.1,30.04,SE,135,7.0,23.0,70,0.00,,,0.00,VWS V14.01,2013-09-17 19:55:00,
2013-09-17 15:00:00,64.1,54.1,30.03,SSE,151,12.0,24.0,70,0.00,,,0.00,VWS V14.01,2013-09-17 20:00:00,
2013-09-17 15:05:00,63.9,53.9,30.03,South,185,4.0,17.0,70,0.00,,,0.00,VWS V14.01,2013-09-17 20:05:00,
2013-09-17 15:10:00,63.9,53.9,30.02,SE,125,4.0,18.0,70,0.00,,,0.00,VWS V14.01,2013-09-17 20:10:00,
2013-09-17 15:15:00,63.9,53.9,30.02,SSE,150,16.0,20.0,70,0.00,,,0.00,VWS V14.01,2013-09-17 20:15:00,
2013-09-17 15:20:00,63.9,53.9,30.02,SE,124,12.0,20.0,70,0.00,,,0.00,VWS V14.01,2013-09-17 20:20:00,
2013-09-17 15:25:00,63.9,54.3,30.02,ESE,119,13.0,20.0,71,0.00,,,0.00,VWS V14.01,2013-09-17 20:25:00,
2013-09-17 15:30:00,64.0,54.4,30.01,South,171,15.0,20.0,71,0.00,,,0.00,VWS V14.01,2013-09-17 20:30:00,
2013-09-17 15:35:00,64.0,54.0,30.01,SE,125,6.0,13.0,70,0.00,,,0.00,VWS V14.01,2013-09-17 20:35:00,
2013-09-17 15:40:00,63.9,53.9,30.01,SE,144,5.0,18.0,70,0.00,,,0.00,VWS V14.01,2013-09-17 20:40:00,
2013-09-17 15:45:00,63.9,54.3,30.01,SSE,164,7.0,18.0,71,0.00,,,0.00,VWS V14.01,2013-09-17 20:45:00,
2013-09-17 15:50:00,63.8,54.2,30.01,ESE,120,8.0,19.0,71,0.00,,,0.00,VWS V14.01,2013-09-17 20:50:00,
2013-09-17 15:55:00,63.8,54.2,30.01,ESE,102,2.0,19.0,71,0.00,,,0.00,VWS V14.01,2013-09-17 20:55:00,
2013-09-17 16:00:00,63.8,54.2,30.00,SE,146,7.0,19.0,71,0.00,,,0.00,VWS V14.01,2013-09-17 21:00:00,
2013-09-17 16:05:00,63.8,54.2,30.00,ESE,104,16.0,18.0,71,0.00,,,0.00,VWS V14.01,2013-09-17 21:05:00,
2013-09-17 16:11:00,63.8,54.2,30.00,ESE,117,10.0,18.0,71,0.00,,,0.00,VWS V14.01,2013-09-17 21:11:00,
2013-09-17 16:16:00,63.8,54.2,30.00,SSE,167,13.0,23.0,71,0.00,,,0.00,VWS V14.01,2013-09-17 21:16:00,
2013-09-17 16:21:00,63.7,53.7,30.00,ESE,113,4.0,23.0,70,0.00,,,0.00,VWS V14.01,2013-09-17 21:21:00,
2013-09-17 16:26:00,63.5,53.9,30.00,East,85,9.0,23.0,71,0.00,,,0.00,VWS V14.01,2013-09-17 21:26:00,
2013-09-17 16:30:00,63.4,53.5,30.00,SSE,152,14.0,24.0,70,0.00,,,0.00,VWS V15.00,2013-09-17 21:30:00,
2013-09-17 16:31:00,63.4,53.5,30.00,SE,142,14.0,24.0,70,0.00,,,0.00,VWS V14.01,2013-09-17 21:31:00,
2013-09-17 16:36:00,63.2,53.7,29.99,SE,139,6.0,24.0,71,0.00,,,0.00,VWS V14.01,2013-09-17 21:36:00,
2013-09-17 16:41:00,63.1,53.6,29.99,South,182,11.0,24.0,71,0.00,,,0.00,VWS V14.01,2013-09-17 21:41:00,
2013-09-17 16:46:00,62.9,53.8,29.99,SSE,151,0.0,24.0,72,0.00,,,0.00,VWS V14.01,2013-09-17 21:46:00,
2013-09-17 16:51:00,62.8,53.7,29.99,ESE,108,8.0,24.0,72,0.00,,,0.00,VWS V14.01,2013-09-17 21:51:00,
2013-09-17 16:56:00,62.6,53.8,29.99,East,101,15.0,24.0,73,0.00,,,0.00,VWS V14.01,2013-09-17 21:56:00,
2013-09-17 17:01:00,62.2,53.8,29.99,East,92,9.0,24.0,74,0.00,,,0.00,VWS V14.01,2013-09-17 22:01:00,
2013-09-17 17:06:00,61.8,53.8,29.99,ESE,106,12.0,17.0,75,0.00,,,0.00,VWS V14.01,2013-09-17 22:06:00,
2013-09-17 17:11:00,61.6,53.6,29.99,ESE,102,2.0,17.0,75,0.00,,,0.00,VWS V14.01,2013-09-17 22:11:00,
2013-09-17 17:16:00,61.5,53.9,29.99,ESE,118,4.0,17.0,76,0.00,,,0.00,VWS V14.01,2013-09-17 22:16:00,
2013-09-17 17:21:00,61.3,53.7,29.99,SE,134,13.0,19.0,76,0.00,,,0.00,VWS V14.01,2013-09-17 22:21:00,
2013-09-17 17:26:00,61.1,53.8,29.99,ESE,107,7.0,19.0,77,0.00,,,0.00,VWS V14.01,2013-09-17 22:26:00,
2013-09-17 17:31:00,60.9,53.7,29.99,ESE,112,4.0,9.0,77,0.00,,,0.00,VWS V14.01,2013-09-17 22:31:00,
2013-09-17 17:36:00,60.8,53.9,29.99,ESE,117,6.0,12.0,78,0.00,,,0.00,VWS V14.01,2013-09-17 22:36:00,
2013-09-17 17:41:00,60.7,53.8,29.99,ESE,114,12.0,15.0,78,0.00,,,0.00,VWS V14.01,2013-09-17 22:41:00,
2013-09-17 17:46:00,60.5,53.6,29.99,East,98,16.0,16.0,78,0.00,,,0.00,VWS V14.01,2013-09-17 22:46:00,
2013-09-17 17:52:00,60.4,53.9,29.98,ESE,110,11.0,18.0,79,0.00,,,0.00,VWS V14.01,2013-09-17 22:52:00,
2013-09-17 17:57:00,60.2,53.7,29.98,SE,125,6.0,18.0,79,0.00,,,0.00,VWS V14.01,2013-09-17 22:57:00,
2013-09-17 18:00:00,60.1,53.9,29.98,ESE,121,7.0,18.0,80,0.00,,,0.00,VWS V15.00,2013-09-17 23:00:00,
2013-09-17 18:02:00,60.1,53.9,29.98,East,94,7.0,8.0,80,0.00,,,0.00,VWS V14.01,2013-09-17 23:02:00,
2013-09-17 18:07:00,60.0,53.8,29.98,SSE,151,2.0,12.0,80,0.00,,,0.00,VWS V14.01,2013-09-17 23:07:00,
2013-09-17 18:12:00,59.9,54.1,29.98,ESE,107,5.0,12.0,81,0.00,,,0.00,VWS V14.01,2013-09-17 23:12:00,
2013-09-17 18:17:00,59.7,53.9,29.98,East,96,11.0,13.0,81,0.00,,,0.00,VWS V14.01,2013-09-17 23:17:00,
2013-09-17 18:22:00,59.5,54.0,29.98,SE,128,4.0,13.0,82,0.00,,,0.00,VWS V14.01,2013-09-17 23:22:00,
2013-09-17 18:27:00,59.3,53.8,29.98,East,87,8.0,13.0,82,0.00,,,0.00,VWS V14.01,2013-09-17 23:27:00,
2013-09-17 18:30:00,59.1,54.0,29.98,ESE,102,7.0,13.0,83,0.00,,,0.00,VWS V15.00,2013-09-17 23:30:00,
2013-09-17 18:32:00,59.1,54.0,29.98,East,97,4.0,11.0,83,0.00,,,0.00,VWS V14.01,2013-09-17 23:32:00,
2013-09-17 18:37:00,58.9,54.1,29.98,East,98,0.0,14.0,84,0.00,,,0.00,VWS V14.01,2013-09-17 23:37:00,
2013-09-17 18:42:00,58.7,53.9,29.98,East,98,5.0,14.0,84,0.00,,,0.00,VWS V14.01,2013-09-17 23:42:00,
2013-09-17 18:47:00,58.6,53.8,29.97,ESE,105,6.0,14.0,84,0.00,,,0.00,VWS V14.01,2013-09-17 23:47:00,
2013-09-17 18:53:00,58.5,54.0,29.97,East,98,12.0,14.0,85,0.00,,,0.00,VWS V14.01,2013-09-17 23:53:00,
2013-09-17 18:58:00,58.4,53.9,29.97,East,80,3.0,14.0,85,0.00,,,0.00,VWS V14.01,2013-09-17 23:58:00,
2013-09-17 19:00:00,58.3,53.8,29.97,ESE,108,6.0,14.0,85,0.00,,,0.00,VWS V15.00,2013-09-18 00:00:00,
2013-09-17 19:03:00,58.3,53.8,29.97,ESE,104,11.0,12.0,85,0.00,,,0.00,VWS V14.01,2013-09-18 00:03:00,
2013-09-17 19:08:00,58.2,53.7,29.96,ESE,121,9.0,12.0,85,0.00,,,0.00,VWS V14.01,2013-09-18 00:08:00,
2013-09-17 19:13:00,58.2,53.7,29.96,ESE,117,7.0,17.0,85,0.00,,,0.00,VWS V14.01,2013-09-18 00:13:00,
2013-09-17 19:18:00,58.1,53.9,29.96,East,97,10.0,17.0,86,0.00,,,0.00,VWS V14.01,2013-09-18 00:18:00,
2013-09-17 19:23:00,58.1,53.9,29.96,East,91,6.0,17.0,86,0.00,,,0.00,VWS V14.01,2013-09-18 00:23:00,
2013-09-17 19:29:00,58.1,53.9,29.96,SE,132,9.0,17.0,86,0.00,,,0.00,VWS V14.01,2013-09-18 00:29:00,
2013-09-17 19:34:00,58.1,53.9,29.96,ESE,108,4.0,10.0,86,0.00,,,0.00,VWS V14.01,2013-09-18 00:34:00,
2013-09-17 19:39:00,58.1,53.9,29.96,East,101,4.0,16.0,86,0.00,,,0.00,VWS V14.01,2013-09-18 00:39:00,
2013-09-17 19:44:00,58.2,54.0,29.96,ESE,121,4.0,16.0,86,0.00,,,0.00,VWS V14.01,2013-09-18 00:44:00,
2013-09-17 19:49:00,58.2,54.0,29.96,ESE,114,4.0,16.0,86,0.00,,,0.00,VWS V14.01,2013-09-18 00:49:00,
2013-09-17 19:54:00,58.2,54.0,29.96,East,98,5.0,16.0,86,0.00,,,0.00,VWS V14.01,2013-09-18 00:54:00,
2013-09-17 19:59:00,58.2,54.0,29.96,ESE,123,5.0,16.0,86,0.00,,,0.00,VWS V14.01,2013-09-18 00:59:00,
2013-09-17 20:04:00,58.3,54.1,29.95,East,89,5.0,13.0,86,0.00,,,0.00,VWS V14.01,2013-09-18 01:04:00,
2013-09-17 20:10:00,58.3,54.1,29.95,ESE,117,10.0,13.0,86,0.00,,,0.00,VWS V14.01,2013-09-18 01:10:00,
2013-09-17 20:15:00,58.3,54.1,29.95,SE,135,11.0,13.0,86,0.00,,,0.00,VWS V14.01,2013-09-18 01:15:00,
2013-09-17 20:20:00,58.3,54.1,29.95,East,98,10.0,13.0,86,0.00,,,0.00,VWS V14.01,2013-09-18 01:20:00,
2013-09-17 20:25:00,58.4,54.2,29.95,ESE,110,5.0,14.0,86,0.00,,,0.00,VWS V14.01,2013-09-18 01:25:00,
2013-09-17 20:31:00,58.4,54.2,29.95,East,97,6.0,14.0,86,0.00,,,0.00,VWS V14.01,2013-09-18 01:31:00,
2013-09-17 20:36:00,58.4,54.5,29.95,ESE,119,5.0,10.0,87,0.00,,,0.00,VWS V14.01,2013-09-18 01:36:00,
2013-09-17 20:41:00,58.4,54.5,29.95,SSE,155,3.0,11.0,87,0.00,,,0.00,VWS V14.01,2013-09-18 01:41:00,
2013-09-17 20:46:00,58.4,54.5,29.95,East,91,8.0,12.0,87,0.00,,,0.00,VWS V14.01,2013-09-18 01:46:00,
2013-09-17 20:51:00,58.4,54.5,29.95,SE,141,9.0,13.0,87,0.00,,,0.00,VWS V14.01,2013-09-18 01:51:00,
2013-09-17 20:56:00,58.5,54.7,29.95,ESE,103,7.0,17.0,87,0.00,,,0.00,VWS V14.01,2013-09-18 01:56:00,
2013-09-17 21:00:00,58.5,54.7,29.95,SE,129,4.0,17.0,87,0.00,,,0.00,VWS V15.00,2013-09-18 02:00:00,
2013-09-17 21:02:00,58.5,54.7,29.95,SE,130,0.0,7.0,87,0.00,,,0.00,VWS V14.01,2013-09-18 02:02:00,
2013-09-17 21:07:00,58.6,54.8,29.95,East,95,9.0,16.0,87,0.00,,,0.00,VWS V14.01,2013-09-18 02:07:00,
2013-09-17 21:12:00,58.6,54.8,29.95,East,87,7.0,16.0,87,0.00,,,0.00,VWS V14.01,2013-09-18 02:12:00,
2013-09-17 21:17:00,58.6,54.8,29.95,ESE,104,6.0,16.0,87,0.00,,,0.00,VWS V14.01,2013-09-18 02:17:00,
2013-09-17 21:22:00,58.7,54.8,29.95,ESE,105,5.0,19.0,87,0.00,,,0.00,VWS V14.01,2013-09-18 02:22:00,
2013-09-17 21:27:00,58.7,54.8,29.95,SSE,148,6.0,19.0,87,0.00,,,0.00,VWS V14.01,2013-09-18 02:27:00,
2013-09-17 21:30:00,58.7,54.8,29.94,ESE,118,12.0,19.0,87,0.00,,,0.00,VWS V15.00,2013-09-18 02:30:00,
2013-09-17 21:32:00,58.7,54.8,29.94,East,93,6.0,14.0,87,0.00,,,0.00,VWS V14.01,2013-09-18 02:32:00,
2013-09-17 21:37:00,58.7,54.8,29.94,ESE,113,8.0,14.0,87,0.00,,,0.00,VWS V14.01,2013-09-18 02:37:00,
2013-09-17 21:42:00,58.8,55.0,29.94,SSE,152,10.0,14.0,87,0.00,,,0.00,VWS V14.01,2013-09-18 02:42:00,
2013-09-17 21:47:00,58.7,55.2,29.94,ESE,123,6.0,14.0,88,0.00,,,0.00,VWS V14.01,2013-09-18 02:47:00,
2013-09-17 21:52:00,58.8,55.3,29.94,ESE,116,5.0,14.0,88,0.00,,,0.00,VWS V14.01,2013-09-18 02:52:00,
2013-09-17 21:57:00,58.7,55.2,29.94,SSE,147,3.0,14.0,88,0.00,,,0.00,VWS V14.01,2013-09-18 02:57:00,
2013-09-17 22:02:00,58.8,55.3,29.94,ESE,123,9.0,11.0,88,0.00,,,0.00,VWS V14.01,2013-09-18 03:02:00,
2013-09-17 22:07:00,58.8,55.3,29.93,SSE,150,5.0,11.0,88,0.00,,,0.00,VWS V14.01,2013-09-18 03:07:00,
2013-09-17 22:12:00,58.8,55.3,29.93,SE,125,6.0,11.0,88,0.00,,,0.00,VWS V14.01,2013-09-18 03:12:00,
2013-09-17 22:18:00,58.9,55.4,29.93,ESE,117,6.0,11.0,88,0.00,,,0.00,VWS V14.01,2013-09-18 03:18:00,
2013-09-17 22:23:00,58.9,55.4,29.93,ESE,117,6.0,11.0,88,0.00,,,0.00,VWS V14.01,2013-09-18 03:23:00,
2013-09-17 22:28:00,58.9,55.4,29.93,ESE,112,3.0,14.0,88,0.00,,,0.00,VWS V14.01,2013-09-18 03:28:00,
2013-09-17 22:33:00,59.0,55.5,29.93,SE,127,9.0,13.0,88,0.00,,,0.00,VWS V14.01,2013-09-18 03:33:00,
2013-09-17 22:38:00,59.0,55.5,29.93,ESE,123,5.0,13.0,88,0.00,,,0.00,VWS V14.01,2013-09-18 03:38:00,
2013-09-17 22:43:00,59.0,55.5,29.93,ESE,104,9.0,13.0,88,0.00,,,0.00,VWS V14.01,2013-09-18 03:43:00,
2013-09-17 22:48:00,59.1,55.5,29.92,ESE,122,7.0,13.0,88,0.00,,,0.00,VWS V14.01,2013-09-18 03:48:00,
2013-09-17 22:54:00,59.1,55.5,29.92,SSE,151,6.0,13.0,88,0.00,,,0.00,VWS V14.01,2013-09-18 03:54:00,
2013-09-17 22:59:00,59.2,55.7,29.92,ESE,108,6.0,13.0,88,0.00,,,0.00,VWS V14.01,2013-09-18 03:59:00,
2013-09-17 23:00:00,59.2,55.7,29.92,East,95,11.0,13.0,88,0.00,,,0.00,VWS V15.00,2013-09-18 04:00:00,
2013-09-17 23:01:00,59.2,55.7,29.92,ESE,118,9.0,13.0,88,0.00,,,0.00,VWS V14.01,2013-09-18 04:01:00,
2013-09-17 23:02:00,59.2,55.7,29.92,SSE,156,1.0,12.0,88,0.00,,,0.00,VWS V14.01,2013-09-18 04:02:00,
2013-09-17 23:03:00,59.2,55.7,29.92,ESE,114,5.0,12.0,88,0.00,,,0.00,VWS V14.01,2013-09-18 04:03:00,
2013-09-17 23:06:00,59.2,55.7,29.92,SE,141,7.0,12.0,88,0.00,,,0.00,VWS V14.01,2013-09-18 04:06:00,
2013-09-17 23:11:00,59.3,55.8,29.92,SSE,166,7.0,12.0,88,0.00,,,0.00,VWS V14.01,2013-09-18 04:11:00,
2013-09-17 23:16:00,59.3,55.8,29.92,SE,129,6.0,12.0,88,0.00,,,0.00,VWS V14.01,2013-09-18 04:16:00,
2013-09-17 23:21:00,59.3,55.8,29.92,ESE,121,5.0,13.0,88,0.00,,,0.00,VWS V14.01,2013-09-18 04:21:00,
2013-09-17 23:27:00,59.4,55.8,29.92,SE,136,4.0,13.0,88,0.00,,,0.00,VWS V14.01,2013-09-18 04:27:00,
2013-09-17 23:32:00,59.4,56.2,29.92,ESE,110,5.0,9.0,89,0.00,,,0.00,VWS V14.01,2013-09-18 04:32:00,
2013-09-17 23:37:00,59.4,56.2,29.92,NE,55,2.0,12.0,89,0.00,,,0.00,VWS V14.01,2013-09-18 04:37:00,
2013-09-17 23:42:00,59.5,56.3,29.92,SE,127,10.0,13.0,89,0.00,,,0.00,VWS V14.01,2013-09-18 04:42:00,
2013-09-17 23:47:00,59.5,56.3,29.92,ESE,117,7.0,13.0,89,0.00,,,0.00,VWS V14.01,2013-09-18 04:47:00,
2013-09-17 23:52:00,59.5,56.3,29.92,ESE,121,6.0,13.0,89,0.00,,,0.00,VWS V14.01,2013-09-18 04:52:00,
2013-09-17 23:57:00,59.5,56.3,29.92,SSE,160,3.0,13.0,89,0.00,,,0.00,VWS V14.01,2013-09-18 04:57:00,